Location: Vaughan
(31.9146°N, 97.1736°W)
Time: 15:02:04
(UTC+00:00)

Meteor 2-20 - Pass Details

Date: 10 December 2025
Orbit: 937 x 959 km, 82.5° (Epoch: 19 January)

Event Time Altitude Azimuth Distance (km) Brightness Sun altitude
Rises 00:29:56 0° 181° (S) 3,623 7.8 -13.6°
Reaches altitude 10° 00:32:25 10° 180° (S) 2,680 7.0 -14.1°
Maximum altitude 00:38:33 80° 95° (E) 975 4.4 -15.3°
Drops below altitude 10° 00:44:43 10° 9° (N) 2,691 6.6 -16.6°
Sets 00:47:13 0° 8° (N) 3,638 7.2 -17.1°
